Regional Weather Roundup
Issued by NWS

Home | Current Version | Previous Version | Graphics & Text | Print | Product List | Glossary On
Versions: 1 2 3 4 5 6 7 8 9 10 11 12 13 14 15 16 17 18 19 20 21 22 23 24 25 26 27 28 29 30 31 32 33 34 35 36 37 38 39 40 41 42 43 44 45 46 47 48 49 50
000
ASUS43 KBIS 221902
RWRND

NORTH DAKOTA REGIONAL WEATHER ROUNDUP
NATIONAL WEATHER SERVICE BISMARCK ND
100 PM CST WED NOV 22 2017

NOTE: "FAIR" INDICATES FEW OR NO CLOUDS BELOW 12,000 FEET WITH NO
SIGNIFICANT WEATHER AND/OR OBSTRUCTIONS TO VISIBILITY.


NDZ001>003-009>011-017-222000-
NORTHWEST NORTH DAKOTA

CITY           SKY/WX    TMP DP  RH WIND       PRES   REMARKS
WILLISTON      CLOUDY    45  32  60 W12       29.86R
MINOT          SUNNY     38  22  52 N8        29.80S
MINOT AFB      SUNNY     36  21  55 NE6       29.79F
$$

NDZ018>021-031>035-040>046-222000-
SOUTHWEST NORTH DAKOTA

CITY           SKY/WX    TMP DP  RH WIND       PRES   REMARKS
BISMARCK       CLOUDY    47  24  40 SW6       29.83F
DICKINSON      CLOUDY    62  38  40 W31G44    29.84S
GARRISON         N/A     47  31  53 NW13G20   29.79F
HETTINGER ARPT CLOUDY    67  37  33 NW32G45   29.89F
$$

NDZ004>008-012>016-024-026-027-054-222000-
NORTHEAST NORTH DAKOTA

CITY           SKY/WX    TMP DP  RH WIND       PRES   REMARKS
GRAND FORKS    FLURRIES  24  17  74 S15G24    29.94F WCI  11
GRND FRKS AFB  PTSUNNY   24  15  67 S17       29.92F WCI  11
DEVILS LAKE    CLOUDY    26  18  71 S9        29.84F WCI  17
$$

NDZ022-023-025-028>030-036>039-047>053-222000-
SOUTHEAST NORTH DAKOTA

CITY           SKY/WX    TMP DP  RH WIND       PRES   REMARKS
FARGO          CLOUDY    28  13  53 S16       29.97F WCI  16
JAMESTOWN      CLOUDY    33  16  49 S18G28    29.82F
$$





USA.gov is the U.S. government's official web portal to all federal, state and local government web resources and services.